Regional Weather Roundup
Issued by NWS

Home | Current Version | Previous Version | Graphics & Text | Print | Product List | Glossary On
Versions: 1 2 3 4 5 6 7 8 9 10 11 12 13 14 15 16 17 18 19 20 21 22 23 24 25 26 27 28 29 30 31 32 33 34 35 36 37 38 39 40 41 42 43 44 45 46 47 48 49 50
000
ASUS43 KMPX 310410
RWRMN
WEATHER ROUNDUP FOR MINNESOTA
NATIONAL WEATHER SERVICE TWIN CITIES/CHANHASSEN MN
1100 PM CDT THU JUL 30 2015


NOTE: "FAIR" INDICATES FEW OR NO CLOUDS BELOW 12,000 FEET WITH NO
SIGNIFICANT WEATHER AND/OR OBSTRUCTIONS TO VISIBILITY. N/A MEANS
CURRENT SKY AND/OR WEATHER CONDITIONS ARE NOT AVAILABLE.

MNZ060>063-068>070-310500-
   Twin Cities Metro

CITY           SKY/WX    TMP DP  RH WIND       PRES   REMARKS
TWIN CITIES    PTCLDY    76  61  59 SW3       30.02R
ST PAUL        PTCLDY    75  60  59 W8        30.01S
CRYSTAL        CLEAR     75  59  57 W5        30.01R
BLAINE         CLEAR     73  61  64 W6        30.02R
LAKEVILLE      PTCLDY    70  61  73 W6        30.03R
EDEN PRAIRIE   CLEAR     73  62  68 W3        30.02R
SOUTH ST PAUL  CLEAR     72  60  67 SW3       30.01S
LAKE ELMO      FAIR      70  61  73 W3        30.02S
$$
MNZ001>005-007-008-013>017-022>024-027-028-310500-
   Northwest Minnesota

CITY           SKY/WX    TMP DP  RH WIND       PRES   REMARKS
BEMIDJI        PTCLDY    68  51  56 W10       29.99S
HALLOCK        CLEAR     61  54  77 W9        29.98S
ROSEAU         CLEAR     64  55  72 W8        29.96R
WARROAD        CLEAR     64  57  77 NW8       29.95R
THIEF RVR FALL CLEAR     64  50  59 W8        30.01R
CROOKSTON      CLEAR     61  52  72 NW7       30.03R
FOSSTON        CLEAR     64  52  63 W12       30.03R
DETROIT LAKES  CLEAR     70  54  56 NW14      30.06R
MOORHEAD       CLEAR     68  55  64 NW10      30.06R
PARK RAPIDS    CLEAR     67  53  61 W13       30.01S
MAHNOMEN       FAIR      63  55  75 W8        30.03R
$$
MNZ006-009>011-018-025>026-310500-
   North Central Minnesota

CITY           SKY/WX    TMP DP  RH WIND       PRES   REMARKS
BAUDETTE       PTCLDY    66  55  67 W12       29.92S
FLAG ISLAND    PTCLDY    66  55  68 W7        29.91S
INTL FALLS     MOCLDY    60  56  86 SW3       29.91S
WASKISH        CLEAR     70  57  64 W14       29.95R
BIG FORK       MOCLDY    64  55  72 W3        29.94S
LONGVILLE      MOCLDY    70  55  60 W3        29.97F
GRAND RAPIDS   CLEAR     70  54  56 W8        29.96S
CRANE LAKE     CLOUDY    61  55  82 NW6G24    29.95R
ORR            MOCLDY    66  52  59 NW17G30   29.92R
COOK           MOCLDY    66  55  68 W13G18    29.93R
WALKER         CLOUDY    68  56  67 W9        29.99R
$$
MNZ012-019>021-037-310500-
   Northeast Minnesota

CITY           SKY/WX    TMP DP  RH WIND       PRES   REMARKS
DULUTH         PTCLDY    64  53  67 W10       29.94F
ELY            CLOUDY    64  52  63 W5        29.90S
HIBBING        CLEAR     64  54  69 SW5       29.94S
EVELETH        CLEAR     64  52  63 W7        29.94S
DULUTH HARBOR  CLEAR     72  59  64 SW10      29.93S
TWO HARBORS    CLEAR     64  57  77 W5        29.90F
SILVER BAY     CLEAR     63  54  72 CALM      29.89S
GRAND MARAIS     N/A     53  48  83 NW3       29.85S
G MARAIS ARPRT CLEAR     54  50  87 CALM      29.90S
$$
MNZ029>031-032-039>041-046>048-054>057-064-310500-
   West Central Minnesota

CITY           SKY/WX    TMP DP  RH WIND       PRES   REMARKS
FERGUS FALLS   CLEAR     64  57  77 W5        30.05R
WHEATON        CLEAR     64  57  77 W3        30.08S
MORRIS         CLEAR     64  59  82 W6        30.06S
ALEXANDRIA     CLEAR     67  59  75 W7        30.07R
ELBOW LAKE     FAIR      65  58  78 W6        30.05S
WADENA         CLEAR     64  54  68 W8        30.03S
GLENWOOD       CLEAR     70  57  64 W9        30.07S
APPLETON       CLEAR     66  61  82 CALM      30.07R
BENSON         CLEAR     64  57  77 N5        30.07R
ORTONVILLE     CLEAR     70  61  73 W5        30.08R
MADISON        CLEAR     64  61  88 W7        30.08S
WILLMAR        FAIR      70  63  78 W3        30.07S
$$
MNZ033>034-036-042>043-049>051-058-059-310500-
   Central Minnesota

CITY           SKY/WX    TMP DP  RH WIND       PRES   REMARKS
ST CLOUD       CLEAR     65  60  84 SW6       30.02S
SAUK CENTRE    FAIR      64  58  83 W7        30.06R
PAYNESVILLE    CLEAR     60  58  92 SW3       30.06S
AITKIN         CLEAR     66  55  68 SW5       29.98S
PINE RIVER     CLEAR     66  55  68 W3        30.03S
BRAINERD       CLEAR     70  54  56 W8        30.01S
STAPLES        CLEAR     64  54  68 W6        30.02F
LONG PRAIRIE   FAIR      68  55  64 W5        30.05S
LITTLE FALLS   CLEAR     63  55  77 CALM      30.03S
LITCHFIELD     CLEAR     70  64  83 CALM      30.06S
BUFFALO        CLEAR     70  61  73 W3        30.04S
MAPLE LAKE     CLEAR     70  63  78 W5        30.05R
$$
MNZ037-044-045-052-053-310500-
   East Central Minnesota

CITY           SKY/WX    TMP DP  RH WIND       PRES   REMARKS
PRINCETON      CLEAR     70  61  73 W3        30.02S
MORA           CLEAR     64  57  77 W5        30.02S
CAMBRIDGE      CLEAR     72  57  60 W3        30.00R
RUSH CITY      CLEAR     67  59  77 W5        30.00S
MOOSE LAKE     PTCLDY    63  54  72 SW3       29.96S
HINCKLEY       FAIR      63  59  88 W5        29.99S
CLOQUET        PTCLDY    68  54  60 SW6       29.96S
MCGREGOR       CLEAR     68  54  60 W3        29.99S
$$
MNZ071>073-080-081-089-090-097-098-310500-
   Southwest Minnesota

CITY           SKY/WX    TMP DP  RH WIND       PRES   REMARKS
MONTEVIDEO     CLEAR     66  54  63 NW3       30.09R
GRANITE FALLS  CLEAR     66  63  89 W3        30.09R
CANBY          CLEAR     68  60  74 W3        30.11R
MARSHALL       CLEAR     66  57  72 NW6       30.11R
REDWOOD FALLS  PTCLDY    71  62  73 W8        30.06R
OLIVIA         CLEAR     64  61  88 NW3       30.06S
PIPESTONE      CLEAR     70  63  78 CALM      30.13R
WINDOM         CLEAR     68  63  83 CALM      30.10R
WORTHINGTON    CLEAR     70  61  73 SW6       30.11R
JACKSON        CLEAR     72  64  78 SW3       30.10S
TRACY          CLEAR     72  61  68 W5        30.10R
SLAYTON        CLEAR     72  60  65 CALM      30.12R
$$
MNZ065>067-074>077-082>085-091>093-310500-
   South Central Minnesota

CITY           SKY/WX    TMP DP  RH WIND       PRES   REMARKS
MANKATO        CLOUDY    72  59  64 W6        30.05R
NEW ULM        CLEAR     68  63  83 W5        30.06R
ST JAMES       CLEAR     70  64  83 SW7       30.07S
FAIRMONT       CLEAR     72  61  68 SW7       30.08R
GLENCOE        CLEAR     70  65  83 W5        30.04S
FARIBAULT      PTCLDY    68  63  83 SW5       30.04S
OWATONNA       CLEAR     66  61  82 SW7       30.05S
WASECA         CLEAR     64  61  88 SW5       30.06S
ALBERT LEA     CLEAR     70  64  83 SW3       30.07S
$$
MNZ078>079-086>088-094>096-310500-
   Southeast Minnesota

CITY           SKY/WX    TMP DP  RH WIND       PRES   REMARKS
ROCHESTER      CLEAR     66  60  81 SW9       30.06S
RED WING       CLEAR     66  63  88 CALM      30.01R
STANTON        PTCLDY    67  61  82 S3        30.02R
DODGE CENTER   CLEAR     64  61  88 SW6       30.06S
WINONA         CLEAR     70  63  78 CALM      30.02S
AUSTIN         CLEAR     68  63  83 SW5       30.07S
PRESTON        CLEAR     69  57  65 W10       30.07S
$$
ABBREVIATIONS USED IN REMARKS
   TC - TEMPERATURES IN CELSIUS
  WCI - WIND CHILL INDEX
   HX - HEAT INDEX
  VSB - VISIBILITY
$$



USA.gov is the U.S. government's official web portal to all federal, state and local government web resources and services.